Jefferson, NC

11:58 PM EDT on July 26, 2017 (GMT -0400)
Ashe County

Weather History for KGEV - October, 2012

Change the Weather History Date:

Friday, October 12, 2012

  Actual Average Record
Temperature  
Mean Temperature 56 °F -  
Max Temperature 62 °F 65 °F 80 °F (1969)
Min Temperature 50 °F 42 °F 30 °F (1976)
Degree Days  
Heating Degree Days 9    
Growing Degree Days 6 (Base 50)    
Moisture  
Dew Point 36 °F    
Average Humidity 50    
Maximum Humidity 58    
Minimum Humidity 39    
Precipitation  
Precipitation 0.00 in - - ()
Sea Level Pressure  
Sea Level Pressure 30.26 in    
Wind  
Wind Speed 11 mph (NW)    
Max Wind Speed 20 mph    
Max Gust Speed 28 mph    
Visibility 10 miles    
Events      
Averages and records for this station are not official NWS values.
T = Trace of Precipitation, MM = Missing Value Source: NWS Daily Summary

Daily Weather History Graph

Daily Weather History Graph

Search for Another Location

Airport or City:

Trip Planner

Search our weather history database for the weather conditions in past years. The results will help you decide how hot, cold, wet, or windy it might be!

Date:

Astronomy

Oct. 12, 2012 Rise Set
Actual Time 7:30 AM EDT 6:52 PM EDT
Civil Twilight 7:04 AM EDT 7:18 PM EDT
Nautical Twilight 6:34 AM EDT 7:48 PM EDT
Astronomical Twilight 6:04 AM EDT 8:18 PM EDT
Moon 4:16 AM EDT (10/12) 4:58 PM EDT (10/12)
Length of Visible Light 12h 14m
Length of Day
11h 22m
Waning Crescent, 11% of the Moon is Illuminated
Oct 12
Waning Crescent
Oct 15
New
Oct 21
First Quarter
Oct 29
Full
Nov 6
Last Quarter

Hourly Weather History & Observations

Time (EDT) Temp. Dew Point Humidity Pressure Visibility Wind Dir Wind Speed Gust Speed Precip Events Conditions
12:15 AM 51.8 °F 30.2 °F 44% 30.24 in 10.0 mi West 10.4 mph 16.1 mph N/A   Clear
12:35 AM 51.8 °F 30.2 °F 44% 30.24 in 10.0 mi West 10.4 mph 18.4 mph N/A   Clear
12:55 AM 51.8 °F 32.0 °F 47% 30.24 in 10.0 mi WNW 12.7 mph 16.1 mph N/A   Clear
1:15 AM 51.8 °F 32.0 °F 47% 30.24 in 10.0 mi WNW 16.1 mph 21.9 mph N/A   Clear
1:35 AM 51.8 °F 32.0 °F 47% 30.24 in 10.0 mi WNW 17.3 mph 20.7 mph N/A   Clear
2:15 AM 51.8 °F 32.0 °F 47% 30.23 in 10.0 mi WNW 18.4 mph 27.6 mph N/A   Clear
2:55 AM 51.8 °F 33.8 °F 50% 30.22 in 10.0 mi WNW 17.3 mph - N/A   Clear
3:15 AM 51.8 °F 33.8 °F 50% 30.22 in 10.0 mi WNW 17.3 mph 26.5 mph N/A   Clear
3:35 AM 51.8 °F 33.8 °F 50% 30.21 in 10.0 mi WNW 19.6 mph 26.5 mph N/A   Clear
3:55 AM 50.0 °F 33.8 °F 54% 30.21 in 10.0 mi WNW 19.6 mph 25.3 mph N/A   Clear
4:15 AM 50.0 °F 35.6 °F 58% 30.21 in 10.0 mi WNW 15.0 mph - N/A   Clear
4:35 AM 50.0 °F 35.6 °F 58% 30.21 in 10.0 mi WNW 18.4 mph 24.2 mph N/A   Clear
4:55 AM 50.0 °F 35.6 °F 58% 30.21 in 10.0 mi WNW 15.0 mph 24.2 mph N/A   Clear
5:15 AM 51.8 °F 35.6 °F 54% 30.21 in 10.0 mi WNW 12.7 mph 21.9 mph N/A   Clear
5:35 AM 50.0 °F 35.6 °F 58% 30.22 in 10.0 mi NW 8.1 mph - N/A   Clear
5:55 AM 50.0 °F 35.6 °F 58% 30.22 in 10.0 mi WNW 9.2 mph 16.1 mph N/A   Clear
6:15 AM 50.0 °F 35.6 °F 58% 30.22 in 10.0 mi WNW 13.8 mph 18.4 mph N/A   Clear
6:35 AM 50.0 °F 35.6 °F 58% 30.24 in 10.0 mi WNW 10.4 mph - N/A   Clear
6:55 AM 50.0 °F 35.6 °F 58% 30.23 in 10.0 mi WNW 11.5 mph - N/A   Clear
7:15 AM 50.0 °F 35.6 °F 58% 30.23 in 10.0 mi WNW 8.1 mph - N/A   Scattered Clouds
7:35 AM 50.0 °F 35.6 °F 58% 30.23 in 10.0 mi WNW 6.9 mph - N/A   Scattered Clouds
7:55 AM 50.0 °F 35.6 °F 58% 30.24 in 10.0 mi West 8.1 mph 17.3 mph N/A   Scattered Clouds
8:15 AM 50.0 °F 35.6 °F 58% 30.25 in 10.0 mi West 6.9 mph - N/A   Mostly Cloudy
8:35 AM 51.8 °F 35.6 °F 54% 30.26 in 10.0 mi WNW 15.0 mph 19.6 mph N/A   Overcast
9:15 AM 51.8 °F 35.6 °F 54% 30.27 in 10.0 mi WNW 5.8 mph 10.4 mph N/A   Clear
9:35 AM 51.8 °F 35.6 °F 54% 30.28 in 10.0 mi Calm Calm - N/A   Clear
10:35 AM 51.8 °F 35.6 °F 54% 30.27 in 10.0 mi Calm Calm - N/A   Scattered Clouds
10:55 AM 53.6 °F 35.6 °F 51% 30.27 in 10.0 mi West 3.5 mph - N/A   Mostly Cloudy
11:15 AM 55.4 °F 33.8 °F 44% 30.27 in 10.0 mi NNW 8.1 mph - N/A   Mostly Cloudy
11:35 AM 57.2 °F 33.8 °F 41% 30.26 in 10.0 mi NNW 9.2 mph - N/A   Scattered Clouds
12:15 PM 59.0 °F 35.6 °F 42% 30.26 in 10.0 mi NNW 8.1 mph - N/A   Mostly Cloudy
1:35 PM 62.6 °F 37.4 °F 39% 30.26 in 10.0 mi North 5.8 mph - N/A   Clear
2:15 PM 62.6 °F 39.2 °F 42% 30.26 in 10.0 mi North 12.7 mph 18.4 mph N/A   Mostly Cloudy
2:35 PM 62.6 °F 39.2 °F 42% 30.26 in 10.0 mi NNW 11.5 mph 16.1 mph N/A   Mostly Cloudy
3:15 PM 60.8 °F 39.2 °F 45% 30.27 in 10.0 mi NW 8.1 mph - N/A   Overcast
3:35 PM 59.0 °F 37.4 °F 45% 30.26 in 10.0 mi NW 8.1 mph - N/A   Overcast
3:55 PM 59.0 °F 37.4 °F 45% 30.27 in 10.0 mi NW 8.1 mph - N/A   Overcast
4:15 PM 59.0 °F 37.4 °F 45% 30.27 in 10.0 mi NNW 6.9 mph - N/A   Overcast
4:35 PM 60.8 °F 37.4 °F 42% 30.26 in 10.0 mi NW 5.8 mph - N/A   Mostly Cloudy
4:55 PM 60.8 °F 37.4 °F 42% 30.26 in 10.0 mi NW 6.9 mph - N/A   Scattered Clouds
5:15 PM 60.8 °F 37.4 °F 42% 30.27 in 10.0 mi NW 6.9 mph - N/A   Clear
5:35 PM 60.8 °F 37.4 °F 42% 30.27 in 10.0 mi NW 9.2 mph - N/A   Clear
5:55 PM 59.0 °F 37.4 °F 45% 30.29 in 10.0 mi NW 6.9 mph - N/A   Clear
6:15 PM 59.0 °F 37.4 °F 45% 30.29 in 10.0 mi NW 9.2 mph 16.1 mph N/A   Clear
6:35 PM 55.4 °F 37.4 °F 51% 30.30 in 10.0 mi NW 6.9 mph - N/A   Clear
6:55 PM 55.4 °F 37.4 °F 51% 30.30 in 10.0 mi NW 8.1 mph - N/A   Clear
7:15 PM 53.6 °F 37.4 °F 54% 30.31 in 10.0 mi NNW 4.6 mph - N/A   Clear
7:35 PM 53.6 °F 37.4 °F 54% 30.31 in 10.0 mi NW 5.8 mph - N/A   Clear
7:55 PM 53.6 °F 37.4 °F 54% 30.31 in 10.0 mi Calm Calm - N/A   Clear
8:35 PM 51.8 °F 37.4 °F 58% 30.34 in 10.0 mi NW 3.5 mph - N/A   Clear
8:55 PM 51.8 °F 37.4 °F 58% 30.34 in 10.0 mi Calm Calm - N/A   Clear
9:15 PM 51.8 °F 37.4 °F 58% 30.35 in 10.0 mi Calm Calm - N/A   Clear